Location: Dumpton Point
(51.3500°N, 1.4433°E)
Time: 22:40:14
(UTC+00:00)

Vanguard 1 - Pass Details

Date: 29 September 2022
Orbit: 650 x 3831 km, 34.2° (Epoch: 03 December)

Event Time Altitude Azimuth Distance (km) Brightness Sun altitude
Rises 14:41:03 0° 226° (SW) 6,708 15.7 24.4°
Reaches altitude 10° 14:47:19 10° 215° (SW) 5,087 15.3 23.6°
Maximum altitude 14:56:33 22° 171° (S) 3,159 13.2 22.5°
Drops below altitude 10° 15:02:48 10° 124° (ESE) 3,300 12.6 21.7°
Sets 15:05:47 0° 108° (ESE) 3,914 12.8 21.3°
